This is the latest recevied weather packets stored in our database for station/object YO2KCB-10. If no packets are shown the sender has not sent any weather packets the latest 10 day(s).
| Time | Temp. | Humidity | Pressure | Rain* | Wind** | Luminosity | Snow |
|---|---|---|---|---|---|---|---|
| 1777901610 | 27.78° C | 21% | 1017.2 hPa | - | - | - | - |
| 1777900410 | 27.78° C | 22% | 1017.3 hPa | - | - | - | - |
| 1777899210 | 27.22° C | 23% | 1017.4 hPa | - | - | - | - |
| 1777898010 | 26.67° C | 23% | 1017.7 hPa | - | - | - | - |
| 1777895609 | 25.56° C | 25% | 1018 hPa | - | - | - | - |
| 1777894409 | 25° C | 25% | 1018.2 hPa | - | - | - | - |
| 1777893209 | 24.44° C | 25% | 1018.3 hPa | - | - | - | - |
| 1777892009 | 23.89° C | 26% | 1018.6 hPa | - | - | - | - |
| 1777890809 | 23.89° C | 27% | 1018.7 hPa | - | - | - | - |
| 1777889609 | 23.33° C | 27% | 1018.7 hPa | - | - | - | - |
| 1777888408 | 22.78° C | 27% | 1019 hPa | - | - | - | - |
| 1777887208 | 21.67° C | 27% | 1019 hPa | - | - | - | - |
| 1777886007 | 21.11° C | 28% | 1019 hPa | - | - | - | - |
| 1777884807 | 20.56° C | 28% | 1019.3 hPa | - | - | - | - |
| 1777883607 | 19.44° C | 28% | 1019.4 hPa | - | - | - | - |
| 1777882407 | 18.33° C | 29% | 1019.4 hPa | - | - | - | - |
| 1777881207 | 17.78° C | 29% | 1019.5 hPa | - | - | - | - |
| 1777880007 | 16.67° C | 29% | 1019.4 hPa | - | - | - | - |
| 1777878806 | 16.11° C | 29% | 1019.5 hPa | - | - | - | - |
| 1777877605 | 15.56° C | 29% | 1019.3 hPa | - | - | - | - |
| 1777876405 | 15° C | 29% | 1019.3 hPa | - | - | - | - |
| 1777875205 | 14.44° C | 29% | 1019.2 hPa | - | - | - | - |
| 1777874005 | 13.89° C | 30% | 1019 hPa | - | - | - | - |
| 1777872805 | 13.33° C | 29% | 1019.2 hPa | - | - | - | - |
| 1777871605 | 12.78° C | 29% | 1019.2 hPa | - | - | - | - |
* Rain since midnight (hover to see other rain measurements)
** Current wind speed in m/s (hover to see current wind gust speed)